Content
SEND FEEDBACK

Daily
Averages
Monthly
Summary
Ireland

CLAREMORRIS, IRELAND


Home > Europe > Ireland
Elevation: 226 feet     Latitude: 53 43N     Longitude: 008 59W

WEATHER
 
SELECT A DAY
Number of Records: 188,518;   Date Range: 5/30/97 - 7/11/14
 
SHARE

PRINT THIS DATA

[ ← Previous Day ]
WEATHER ALMANAC - APRIL 8, 2013
[ Next Day → ]
[ °C ]   °F
Weather ElementAverageHighLow
Temperature42 °F48.2 °F (3:30 pm)33 °F (7:00 am)
Dewpoint30.5 °F33.8 °F (8:30 am)28.4 °F (1:30 pm)
Humidity65.2 %93 % (6:00 am)43 % (1:00 pm)
Barometer29.57 in29.69 in (7:00 am)29.47 in (4:30 pm)
Wind Speed18.4 mph23 mph (5:00 pm)
Wind Gust36.8 mph (2:00 pm)
Weather ElementAverage
Visibility5.4 mi
Wind DirectionESE (100.3 °)

Weather ElementTotal
Precipitation---
Heating Degree Days24.4 (Base 65)
Averaged from 29 records on April 8, 2013
WEATHER CONDITIONS BREAKOUT
WIND DIRECTION BREAKOUT
WEATHER BY HOUR - APRIL 8, 2013
[ °C ]   °F
Local TimeTemperatureDewpointHumidityBarometerVisibilityWind DirectionWind SpeedGust SpeedPrecipitationEventsConditions
6:00 AM33.8 °F32.0 °F93 %29.65 in6.2 miEast (100°)13.8 mphMostly Cloudy
6:30 AM33.8 °F32.0 °F93 %29.65 in6.2 miEast (90°)15.0 mphOvercast
7:00 AM33.0 °F32.0 °F93 %29.69 in3.0 miEast (90°)15.7 mphScattered Clouds
7:00 AM33.8 °F32.0 °F93 %29.65 inEast (90°)15.0 mphPartly Cloudy
7:30 AM33.8 °F32.0 °F93 %29.62 inEast (100°)13.8 mphScattered Clouds
8:00 AM33.8 °F32.0 °F93 %29.62 inEast (90°)15.0 mphMostly Cloudy
8:30 AM35.6 °F33.8 °F93 %29.62 inEast (90°)16.1 mphMostly Cloudy
9:00 AM37.4 °F33.8 °F87 %29.62 inEast (100°)16.1 mphScattered Clouds
9:30 AM39.2 °F33.8 °F81 %29.62 in4.3 miEast (100°)16.1 mph27.6 mphScattered Clouds
10:00 AM41.0 °F32.0 °F70 %29.62 in3.7 miEast (100°)18.4 mphMostly Cloudy
10:30 AM41.0 °F32.0 °F70 %29.62 in5.0 miEast (100°)18.4 mphMostly Cloudy
11:00 AM42.8 °F30.2 °F61 %29.59 in5.6 miEast (90°)20.7 mphScattered Clouds
11:30 AM44.6 °F30.2 °F57 %29.59 in5.6 miEast (100°)19.6 mphScattered Clouds
12:00 PM44.6 °F30.2 °F57 %29.56 in5.6 miEast (100°)19.6 mphScattered Clouds
12:30 PM46.4 °F30.2 °F53 %29.56 in5.6 miESE (110°)18.4 mph31.1 mphScattered Clouds
1:00 PM46.0 °F31.0 °F43 %29.58 in6.0 miEast (100°)20.1 mphHaze
1:00 PM46.4 °F30.2 °F53 %29.56 in5.6 miEast (100°)20.7 mphScattered Clouds
1:30 PM46.4 °F28.4 °F50 %29.53 in5.6 miEast (100°)21.9 mph35.7 mphScattered Clouds
2:00 PM46.4 °F30.2 °F53 %29.53 in5.6 miEast (100°)20.7 mph36.8 mphScattered Clouds
2:30 PM46.4 °F30.2 °F53 %29.53 in5.6 miEast (100°)20.7 mphScattered Clouds
3:00 PM46.4 °F28.4 °F50 %29.53 in5.6 miESE (120°)21.9 mphMostly Cloudy
3:30 PM48.2 °F28.4 °F46 %29.50 in5.6 miESE (120°)18.4 mph29.9 mphMostly Cloudy
4:00 PM46.4 °F28.4 °F50 %29.50 in6.2 miESE (110°)17.3 mphMostly Cloudy
4:30 PM46.4 °F28.4 °F50 %29.47 in6.2 miESE (110°)20.7 mph36.8 mphScattered Clouds
5:00 PM46.4 °F28.4 °F50 %29.47 in5.6 miEast (100°)23.0 mph34.5 mphScattered Clouds
5:30 PM44.6 °F28.4 °F53 %29.47 in5.6 miEast (100°)20.7 mphScattered Clouds
6:00 PM46.4 °F28.4 °F50 %29.47 in5.6 miEast (100°)21.9 mphScattered Clouds
7:00 PM43.0 °F29.0 °F45 %29.50 in5.0 miEast (100°)17.9 mphPartly Cloudy
7:00 PM42.8 °F28.4 °F57 %29.47 in5.0 miEast (100°)17.3 mph28.8 mphMostly Cloudy
Hourly data recorded from EIKN, located miles away from Claremorris, Ireland







STORIES FROM OUR PARTNERS